Wind_Speed
79 79 73 74 83 85 84 85 82 77 74 71 68 68 67 66 65 64 63 61 60 58 57 55 53 50 49 47 46 44 41 43 42 39 35 31 34 34 37 49 51 49 49 47 47 48 46 48 50 48 46 45 42 40 40 39 40 41 40 39 38 36 36 35 34 35 32 29 29 29 28 27 25 23 21 20 19 17 16 14 13 11 10 9 8 8 8 8
74 77 75 73 78 84 84 84 81 76 74 70 67 68 67 66 65 64 63 62 60 59 58 56 54 52 50 49 48 46 44 45 43 38 35 33 35 36 35 45 52 51 50 49 50 49 47 50 50 47 46 45 43 42 42 41 41 40 39 38 38 38 39 38 36 34 32 30 30 31 30 28 26 25 23 22 19 18 17 14 13 12 11 10 10 9 9 8
75 73 73 73 74 80 85 83 80 75 73 70 66 67 66 65 65 63 63 62 61 59 58 58 56 54 51 52 52 49 47 46 42 36 34 35 36 37 36 40 51 55 52 50 51 49 48 51 50 46 45 44 44 44 45 44 42 41 40 39 38 40 41 39 35 33 32 31 32 32 31 30 28 27 25 22 21 19 17 15 14 13 12 12 11 10 10 9
79 73 69 71 71 75 83 83 79 74 72 70 65 66 66 64 64 62 62 61 60 59 58 58 57 55 52 52 53 51 48 46 40 35 36 38 38 38 39 38 46 54 53 51 52 49 47 50 50 47 45 43 44 45 47 46 43 42 41 39 41 43 41 37 35 35 35 33 34 33 32 31 29 28 26 24 22 20 18 17 16 14 13 12 12 11 11 10
78 74 68 70 70 72 81 83 79 73 71 70 64 66 66 64 63 62 61 60 60 59 57 57 57 57 56 54 54 52 49 46 41 38 39 41 41 39 40 40 40 47 53 53 51 47 46 50 51 50 48 46 45 46 48 47 44 42 41 41 42 41 37 35 35 36 35 34 34 33 32 31 29 29 27 26 24 21 20 18 17 14 12 12 12 11 11 11
77 73 66 67 69 71 77 80 78 73 71 70 65 66 66 63 62 61 60 59 59 58 57 57 56 57 57 55 54 52 50 47 42 40 42 43 42 39 41 43 38 40 49 51 48 45 46 49 51 51 51 50 47 46 49 50 46 43 42 42 41 39 36 35 36 35 35 34 34 32 31 29 29 30 28 27 25 23 21 19 17 13 13 13 12 12 12 13
78 72 65 63 67 69 73 78 77 73 70 69 65 65 66 63 62 61 59 59 58 58 56 55 56 56 56 56 55 52 49 47 43 42 44 43 42 40 41 43 40 36 41 47 45 43 45 47 52 53 51 51 50 48 50 51 47 44 44 43 43 41 37 36 37 36 35 35 34 33 31 30 31 30 28 27 26 24 22 21 18 15 16 16 14 14 15 14
78 73 68 66 67 68 70 74 75 73 71 69 66 66 66 63 61 60 58 58 57 57 56 55 55 55 55 55 54 51 48 46 44 43 44 43 42 41 40 40 42 38 35 41 42 43 43 44 50 53 50 48 49 50 52 53 49 46 46 44 43 42 39 38 38 37 36 36 35 34 33 32 32 30 29 29 27 25 24 23 20 18 18 18 17 17 16 15
79 74 69 69 70 70 69 70 72 72 71 68 66 66 66 63 60 59 57 57 56 56 56 55 54 55 54 54 53 51 48 46 44 44 44 43 41 40 38 36 41 42 35 33 37 43 42 41 48 53 50 46 46 49 52 54 52 49 47 44 42 41 39 39 38 37 37 37 36 36 35 34 33 32 31 30 28 26 26 24 21 20 21 20 19 18 17 16
78 73 66 69 71 72 70 69 70 70 70 68 66 67 66 63 60 58 57 56 56 55 55 55 54 55 54 53 53 50 48 47 45 46 45 43 41 39 36 35 38 43 40 31 30 38 41 41 47 52 51 47 45 47 50 54 53 51 49 44 42 41 40 40 39 39 39 39 38 37 36 35 35 33 32 30 27 27 26 24 22 23 23 22 20 18 17 16
71 69 63 68 70 71 71 69 69 69 70 69 67 68 66 63 60 58 57 56 56 55 54 54 54 54 53 52 51 48 47 48 46 46 45 42 39 37 35 35 36 40 44 38 29 31 38 41 45 51 51 48 47 48 50 53 53 52 49 44 42 43 42 42 41 41 41 40 39 38 37 36 35 33 32 30 28 28 27 25 25 25 24 23 20 18 17 16
62 65 65 68 69 69 70 69 69 69 69 69 68 68 67 63 61 58 57 57 55 54 54 54 53 52 53 52 51 48 48 48 46 46 45 42 40 37 35 36 36 38 42 42 34 29 33 40 44 50 52 49 49 50 52 54 53 50 47 44 45 45 44 44 43 42 42 41 40 39 38 37 34 32 33 32 30 29 28 27 26 26 25 23 20 19 18 18
61 64 67 69 70 68 68 69 69 70 70 69 69 69 67 63 61 59 57 57 55 54 54 53 53 52 52 51 49 48 48 48 46 46 45 43 41 38 36 35 35 36 39 41 38 31 31 37 43 49 53 52 51 52 54 56 54 50 47 46 47 47 47 46 44 44 43 42 41 40 38 35 33 34 35 33 32 30 29 29 28 27 26 23 21 21 20 19
65 68 67 67 72 69 67 69 69 70 70 70 70 69 67 63 61 59 57 57 56 54 54 53 52 51 50 49 48 47 47 47 46 45 44 42 40 38 36 34 33 35 37 39 40 35 30 33 41 48 53 53 52 52 56 57 55 51 49 49 49 49 49 47 46 45 44 43 42 41 38 35 36 38 37 35 33 31 31 30 29 28 26 24 23 22 22 21
65 70 65 63 72 70 68 70 70 71 71 71 70 69 67 63 61 59 57 57 56 55 53 53 52 51 49 49 48 47 48 47 45 44 43 42 40 37 35 33 32 33 35 36 39 38 32 30 36 45 52 54 53 54 58 58 54 51 51 51 50 49 49 47 47 47 45 44 42 40 37 37 40 39 36 36 34 32 32 30 30 28 26 25 24 24 23 22
65 70 63 60 68 71 69 70 71 72 72 72 71 70 67 64 62 60 58 57 57 55 53 52 51 50 49 48 47 47 47 46 45 44 42 41 39 37 35 33 32 32 33 34 37 39 34 28 30 40 50 54 55 56 59 58 55 53 52 52 49 49 50 48 48 47 46 44 42 40 38 39 40 36 35 35 34 34 33 31 30 29 27 26 25 25 24 23
68 69 60 58 64 69 71 71 73 74 73 73 72 70 67 64 63 60 59 58 57 55 53 52 50 49 48 47 47 47 45 45 45 44 42 40 39 37 35 34 32 32 32 33 35 38 36 30 27 35 47 56 57 58 60 59 56 55 54 52 49 49 50 48 46 46 44 42 41 40 38 39 38 35 35 34 34 35 34 32 31 29 28 27 27 26 24 23
73 67 56 59 64 69 72 73 75 75 74 74 72 70 68 66 63 61 60 59 58 56 55 54 52 51 49 45 45 45 44 43 43 43 41 40 39 37 36 34 33 32 32 32 34 36 36 32 27 32 44 54 59 60 61 60 57 56 55 52 48 49 50 48 46 44 43 41 41 39 38 38 37 34 34 34 34 35 34 33 32 30 29 28 28 27 25 24
75 65 55 64 70 71 74 74 76 76 75 75 73 72 69 66 64 62 61 60 60 58 56 54 51 50 47 44 44 45 43 42 43 43 42 40 38 37 36 35 34 33 31 32 33 35 36 33 29 29 37 48 57 61 61 59 56 56 55 50 47 51 51 49 46 42 41 40 40 39 37 36 36 35 36 36 36 37 36 35 33 31 30 29 28 27 26 25
73 63 57 69 75 73 74 74 75 75 75 75 73 73 70 67 66 65 63 58 55 53 50 48 46 47 45 44 46 46 45 44 43 43 42 40 39 37 36 36 34 33 31 31 32 33 34 34 31 27 31 44 56 61 61 59 57 56 55 51 50 52 50 46 44 40 38 39 39 39 37 37 38 38 38 39 39 38 37 35 33 32 31 30 29 28 27 26
66 61 58 67 73 74 74 74 74 74 74 73 71 71 69 67 67 64 61 56 52 50 48 46 45 46 46 45 46 46 45 44 44 43 43 41 39 39 37 36 35 33 32 31 32 33 33 34 32 28 33 45 56 61 60 59 57 56 56 56 54 51 48 47 46 42 40 41 40 40 41 40 40 40 40 41 40 38 36 35 33 32 32 31 30 29 28 27
61 63 63 66 70 72 73 73 74 74 73 72 69 68 66 65 63 60 57 56 56 55 52 48 46 46 46 46 47 46 45 44 43 43 43 42 41 39 38 36 35 33 32 32 31 32 33 33 31 31 35 46 55 59 60 59 58 57 57 56 51 48 49 49 46 44 43 42 43 44 43 41 40 41 42 43 40 37 37 36 34 33 33 32 30 29 29 29
60 67 70 71 71 72 74 74 74 74 73 71 68 67 65 64 61 56 54 55 58 60 58 53 50 49 47 47 48 46 45 44 42 41 41 40 40 39 38 36 35 34 33 32 31 31 32 31 31 32 36 44 54 59 61 61 60 57 55 51 47 46 50 49 45 44 44 43 45 45 44 42 41 43 44 44 40 37 37 37 35 35 34 32 31 31 30 30
61 68 69 70 73 74 74 75 75 74 72 69 68 67 66 64 61 56 54 54 55 58 58 55 54 53 50 48 48 46 45 43 41 40 40 39 38 38 37 35 34 34 32 31 30 30 30 29 30 32 35 42 53 59 62 61 59 56 52 50 49 48 49 48 45 44 44 44 45 46 46 45 43 44 44 42 40 38 38 38 36 35 34 33 32 32 31 30
63 67 65 67 72 74 75 75 75 73 71 70 69 68 66 64 61 58 57 56 54 54 54 55 56 55 50 49 50 48 46 44 41 40 38 37 37 36 35 34 34 33 31 30 30 31 30 29 30 32 35 43 51 57 60 59 58 56 52 50 50 48 49 48 45 44 45 46 45 46 48 46 43 43 43 41 41 39 39 39 38 36 35 35 33 32 31 32
65 67 65 68 72 73 75 74 72 72 71 70 68 67 65 64 62 59 57 56 56 55 53 53 55 53 49 50 51 50 48 46 42 40 39 38 37 35 35 35 34 33 32 31 31 32 31 30 31 33 36 43 50 56 59 59 58 56 53 50 49 49 48 46 45 45 46 47 46 46 49 47 44 43 44 43 43 42 40 40 39 37 37 35 33 32 32 33
65 67 66 70 71 70 70 69 70 72 70 69 68 66 65 64 61 59 58 58 58 57 53 52 52 50 49 49 49 50 49 46 43 41 39 38 38 37 36 35 34 34 33 33 33 33 33 32 32 33 36 41 47 53 58 60 59 57 55 51 49 49 48 46 46 46 48 49 49 47 49 49 46 44 45 45 45 43 42 40 39 39 38 36 34 33 33 33
61 67 66 67 68 67 67 68 69 68 67 68 69 67 66 65 62 60 61 61 59 57 53 51 50 49 49 48 47 47 45 43 42 42 40 38 38 38 38 36 35 35 35 34 33 32 32 32 32 33 35 37 41 48 57 61 60 58 56 53 50 49 47 46 46 47 49 51 51 49 49 51 49 45 45 47 45 43 42 41 40 39 38 37 35 34 34 34
55 64 66 66 69 70 69 69 69 68 69 70 69 69 68 66 63 61 61 62 61 57 54 51 50 50 50 48 47 45 43 42 42 40 38 38 38 37 37 37 36 36 35 34 33 32 32 32 31 33 35 35 37 45 54 60 62 60 57 55 52 48 46 46 47 48 50 54 54 50 49 53 52 47 46 47 45 43 42 41 40 39 39 38 37 36 35 35
56 60 64 68 71 72 71 71 70 71 72 72 69 69 69 67 65 64 64 64 61 58 56 53 51 51 49 48 48 46 44 43 42 40 39 38 36 35 35 35 35 35 34 34 34 34 33 33 33 33 34 35 37 43 51 58 63 62 59 56 53 50 47 46 49 49 52 56 55 51 50 53 54 50 47 47 45 43 42 42 42 41 39 38 38 37 36 37
60 61 64 68 70 70 71 72 72 72 72 72 71 70 70 68 66 65 66 64 60 58 57 55 53 52 49 47 48 46 45 43 42 42 42 39 37 36 36 35 34 34 33 33 34 34 34 33 33 34 34 35 37 41 47 54 61 63 62 58 55 52 50 48 51 52 54 58 56 52 52 55 58 54 48 48 48 45 42 41 42 42 39 37 38 38 37 37
61 62 65 69 71 71 72 72 73 74 73 70 70 71 71 69 66 66 66 64 62 60 57 55 53 52 49 47 47 47 47 44 42 42 41 40 39 38 37 36 34 34 34 33 34 35 35 34 34 34 35 35 37 40 44 49 55 62 65 62 58 55 53 51 52 54 56 58 56 53 53 56 60 57 50 49 49 45 41 39 40 41 40 37 37 38 38 37
59 63 68 73 75 75 75 74 75 77 76 72 71 71 70 70 70 68 66 64 62 59 56 54 51 50 51 50 50 49 48 45 43 42 41 40 40 39 37 36 33 32 32 32 33 34 35 34 33 34 35 36 37 39 41 44 48 56 64 65 61 58 55 53 53 54 57 57 56 55 55 57 60 57 52 49 48 45 41 39 39 40 40 39 37 38 38 38
58 64 69 73 77 77 76 76 76 76 77 75 73 71 70 70 70 68 66 64 61 58 56 55 53 52 52 52 52 51 49 47 45 44 43 43 42 40 38 35 33 33 32 32 32 32 33 33 31 32 34 35 37 37 39 41 45 54 63 66 62 58 55 53 52 53 55 56 56 56 57 59 59 56 53 49 48 47 43 40 39 39 41 40 39 39 39 39
61 65 69 74 78 78 77 77 78 76 76 76 74 73 72 71 68 66 64 62 60 59 57 55 54 54 53 53 53 52 51 50 48 47 45 43 40 38 36 35 33 34 34 33 32 32 33 32 31 31 32 34 36 37 38 40 44 52 60 65 65 61 57 55 53 52 53 56 57 58 59 59 57 55 54 50 48 48 46 43 41 40 41 42 41 40 39 39
64 67 71 76 77 77 77 78 78 77 76 76 75 75 74 70 66 64 62 59 59 59 58 58 57 56 55 56 55 54 52 50 49 48 46 42 40 37 35 33 32 32 31 30 31 32 32 32 32 32 33 34 35 37 38 40 43 49 55 61 65 64 57 54 55 54 53 56 59 59 59 58 57 55 55 52 50 49 48 47 44 42 42 42 42 41 40 40
66 66 69 77 78 77 79 80 79 78 77 75 75 74 71 67 65 64 62 60 59 60 59 59 60 58 57 56 54 53 52 50 49 48 45 43 41 37 34 33 31 30 30 30 31 31 30 31 31 31 32 34 35 37 38 39 42 47 52 55 60 64 59 56 57 57 56 58 61 61 59 57 56 56 55 54 52 50 49 47 46 44 43 42 42 42 41 41
64 63 68 77 79 78 81 81 80 79 77 75 75 72 69 68 67 66 64 62 61 60 59 58 58 57 57 55 52 51 51 51 49 48 46 44 40 36 34 34 32 31 31 32 32 32 32 32 33 33 32 33 34 36 38 40 42 45 48 51 56 62 63 61 61 61 60 61 64 64 61 59 57 56 55 54 52 51 49 47 46 45 44 43 43 42 42 42
65 64 71 78 79 80 82 83 81 80 78 77 75 72 70 70 69 67 65 63 61 60 59 58 56 55 55 54 52 52 51 50 48 47 46 43 40 37 36 34 33 33 34 34 35 35 34 33 34 35 34 34 35 36 38 40 42 44 47 49 52 57 61 63 64 63 63 63 65 65 63 61 59 55 52 52 53 51 49 47 46 46 45 44 43 43 43 43
68 66 71 78 79 80 83 83 82 82 80 76 73 72 71 70 68 66 65 64 62 61 60 59 56 55 54 54 54 52 50 49 48 47 45 42 41 40 38 36 35 35 36 37 38 38 36 35 36 36 36 37 37 38 38 38 40 43 46 48 50 52 56 60 64 65 64 64 66 66 65 63 61 57 53 51 51 50 48 46 46 46 45 45 44 44 43 44
66 67 73 79 80 81 84 86 85 83 79 76 74 73 73 72 70 69 68 65 64 62 60 58 57 55 54 54 54 52 50 49 48 46 45 42 40 39 38 38 38 37 39 40 39 39 38 37 37 38 37 37 37 36 36 37 39 41 43 46 48 51 54 58 62 65 66 66 67 67 68 66 62 59 56 52 49 47 46 46 45 45 46 45 45 45 45 44
63 68 75 79 81 83 84 85 83 80 78 77 77 76 74 73 73 72 71 68 66 63 61 59 58 56 54 54 53 51 49 48 48 46 44 41 39 38 38 38 37 36 37 38 37 37 36 36 36 37 36 36 35 36 36 37 38 40 42 44 46 49 52 54 57 60 63 67 67 67 69 70 65 60 58 55 51 47 45 44 43 44 45 46 46 46 46 45
60 67 75 79 82 83 83 83 83 81 81 80 78 76 76 75 75 75 73 71 69 66 64 61 59 57 56 55 53 51 48 46 46 44 42 41 40 39 39 37 35 35 35 36 36 36 36 36 37 36 36 35 35 35 36 36 37 40 42 42 44 46 48 50 53 56 61 65 66 66 71 73 68 63 60 56 53 51 48 44 42 42 43 45 47 46 46 46
60 66 76 82 83 83 83 82 81 80 81 82 80 78 78 78 77 76 74 72 70 68 66 63 61 58 57 56 54 52 48 46 45 44 42 42 41 39 38 37 35 34 34 35 35 36 36 38 39 38 38 37 37 38 38 39 40 41 41 42 43 44 46 50 53 55 60 62 63 67 71 72 69 66 64 60 55 53 51 46 42 41 41 42 44 45 46 46
61 67 75 80 82 83 83 81 79 79 80 82 82 81 80 78 77 75 73 72 70 68 67 65 63 60 58 57 56 54 49 46 45 45 43 42 42 40 38 37 36 35 34 34 34 34 36 38 39 39 40 40 40 40 38 37 38 40 40 39 40 41 44 47 49 55 58 58 60 65 65 65 67 68 67 63 59 55 52 48 45 42 42 42 43 45 46 47
65 69 74 79 80 80 80 80 80 81 82 83 84 83 81 79 78 76 75 74 71 69 67 66 64 61 58 57 57 56 51 47 46 46 44 44 43 42 40 39 39 37 36 36 37 37 39 41 40 41 42 42 40 38 35 34 35 36 35 35 37 39 41 45 49 53 52 53 57 60 57 56 61 66 67 65 61 56 53 50 47 45 44 45 46 46 48 49
67 71 73 75 77 77 79 80 81 81 81 81 81 81 81 80 79 78 78 76 73 70 68 67 64 62 59 58 58 56 52 50 49 48 46 46 45 43 41 40 40 39 37 38 39 40 42 43 43 42 43 42 40 38 37 36 36 36 35 36 38 39 41 45 49 48 47 52 56 53 51 51 54 60 65 64 62 60 56 53 51 49 49 50 50 50 50 50
67 69 71 72 69 67 68 69 73 77 78 79 79 79 80 80 80 79 79 77 74 72 70 69 66 63 60 59 58 57 54 53 52 51 49 47 46 45 44 42 42 41 40 40 41 42 43 44 44 42 42 41 40 40 41 40 39 39 40 41 41 42 44 45 47 45 47 53 51 45 48 50 48 53 60 62 62 63 60 57 55 54 53 54 54 52 50 49
66 67 69 71 68 62 58 57 65 75 78 78 79 79 79 78 78 78 77 77 75 73 71 70 67 64 62 60 59 58 56 55 53 53 52 50 48 47 46 45 45 43 43 43 43 44 44 44 43 42 42 41 41 42 43 43 43 43 44 45 45 46 47 46 45 44 45 49 45 40 45 47 43 47 55 58 62 64 63 61 59 57 56 55 54 53 51 50
67 66 65 67 69 67 65 65 70 76 78 79 79 79 78 76 75 74 75 75 75 73 72 70 68 65 63 62 60 59 57 54 51 50 50 50 49 48 47 47 46 44 44 43 44 44 43 43 43 42 42 42 42 42 43 44 45 46 46 46 46 47 48 47 45 43 45 47 43 40 45 43 37 40 47 51 57 61 63 64 62 59 57 55 54 53 53 52
67 66 64 63 66 70 72 71 70 72 77 79 78 78 77 75 74 73 72 72 72 70 69 68 67 66 64 62 61 60 57 54 50 47 45 43 42 43 43 43 42 41 41 40 41 40 40 41 41 40 42 42 41 42 44 45 47 50 49 47 46 46 47 46 44 44 45 47 45 45 44 36 29 33 42 45 50 56 59 62 61 59 56 55 54 54 54 53
66 65 64 63 64 68 73 73 72 72 72 71 72 74 74 73 73 74 74 73 71 69 67 66 66 65 63 62 61 59 55 52 49 46 43 40 38 38 38 38 38 38 37 37 38 38 38 40 41 42 43 42 41 43 45 47 51 52 48 44 44 46 46 46 45 45 45 47 48 46 38 28 26 34 40 41 46 52 55 56 57 56 54 53 54 54 55 55
Wind_Direction
221 223 224 223 219 219 220 220 222 221 219 219 215 212 212 212 211 210 211 212 212 209 208 208 207 208 210 213 214 212 215 216 216 221 223 224 225 230 221 208 207 207 207 208 208 209 214 215 215 215 211 206 204 197 194 200 201 202 202 201 200 200 202 202 201 202 198 195 199 198 199 200 198 199 198 197 196 193 194 195 193 194 194 195 198 201 201 201
223 224 224 223 220 218 220 220 222 221 219 219 216 212 212 212 211 211 210 211 212 210 208 207 206 207 208 211 212 210 214 216 216 220 219 220 225 227 225 214 209 209 209 210 211 214 220 218 215 216 212 207 205 198 193 199 202 202 203 201 201 202 203 203 202 201 198 197 201 201 202 202 201 203 203 203 202 201 202 201 198 199 200 199 203 205 204 203
222 222 222 222 220 218 219 221 221 220 218 218 216 212 212 212 211 211 210 211 211 210 208 207 206 207 209 212 212 210 213 216 216 218 216 220 226 225 226 219 212 211 211 213 215 217 220 218 216 215 214 210 207 201 194 197 201 201 202 202 204 205 204 203 201 201 199 200 203 204 204 204 204 206 206 206 207 208 208 207 206 206 206 204 207 209 208 206
218 217 216 218 219 217 218 220 221 219 217 217 214 212 212 212 212 211 210 211 211 210 209 208 206 206 209 211 213 212 212 216 214 213 215 220 225 224 226 224 214 211 212 215 218 219 217 217 217 214 215 214 211 206 197 196 198 200 201 201 206 208 205 202 201 202 201 201 204 205 206 205 206 208 209 210 212 214 214 213 216 217 214 212 212 212 211 210
213 213 213 214 215 215 217 219 219 218 216 216 213 211 212 212 212 211 210 211 211 210 209 209 207 207 209 210 212 211 212 216 213 211 216 219 223 225 226 226 218 212 212 216 220 218 214 215 218 216 215 215 214 211 200 196 197 198 200 203 208 208 205 206 205 206 205 204 206 207 208 206 208 211 211 213 214 217 220 222 225 227 226 225 221 218 216 214
210 210 211 213 213 214 216 218 218 217 215 215 211 210 212 212 212 211 211 210 210 210 209 209 209 209 210 210 211 210 211 215 211 210 216 219 223 225 227 228 223 215 212 215 218 216 213 214 218 219 217 214 213 210 201 196 196 196 199 204 208 207 206 209 209 210 208 207 208 209 210 209 211 214 214 216 217 220 223 227 231 232 231 230 227 224 220 217
209 208 209 211 211 212 215 216 216 215 214 213 210 209 211 212 212 212 211 210 210 210 209 209 210 210 211 210 211 211 210 213 211 211 216 219 222 224 227 229 226 223 216 215 216 214 213 214 217 221 219 214 211 206 200 197 195 196 199 203 205 204 205 210 211 212 211 209 209 209 210 210 213 216 217 219 220 220 223 227 231 230 231 229 223 222 219 217
207 207 208 211 211 210 213 215 214 214 212 212 209 207 210 211 212 212 211 210 210 209 209 209 210 211 211 211 212 211 210 213 211 212 216 218 221 224 226 229 228 227 221 216 215 213 213 213 217 222 220 216 211 205 200 196 193 195 199 203 204 202 204 209 211 213 212 211 210 209 210 211 214 216 218 221 221 220 222 225 227 226 230 229 224 222 220 218
203 203 203 208 211 210 212 212 212 211 211 210 207 206 209 211 211 211 210 210 209 209 209 209 210 210 211 211 211 211 211 213 212 212 216 217 220 224 226 228 228 227 223 216 214 214 213 213 216 220 220 214 210 208 202 195 193 195 199 203 204 203 206 209 211 214 213 212 211 210 211 211 213 215 217 220 220 221 223 225 226 225 227 228 226 226 225 222
196 198 198 203 208 209 209 210 209 209 208 207 205 205 208 209 210 210 210 210 209 209 209 209 210 210 211 211 210 210 211 212 211 212 215 217 220 223 224 227 229 229 226 222 217 215 215 215 216 218 219 212 207 207 201 195 193 195 198 201 203 205 207 209 212 214 215 214 213 213 212 212 214 216 218 221 221 222 224 224 226 228 229 229 229 230 229 227
190 194 197 201 206 207 207 206 206 206 206 205 203 204 207 207 209 209 209 209 209 209 210 210 210 209 211 210 209 209 210 210 210 212 214 216 219 221 223 226 229 231 230 229 226 219 218 218 216 216 217 213 206 202 197 194 196 197 197 199 203 206 207 209 212 214 216 215 215 215 214 214 215 216 219 222 221 221 222 222 224 227 230 231 231 230 228 227
189 192 195 198 203 205 205 204 202 203 203 202 201 203 205 206 207 208 208 209 209 209 209 209 209 209 210 210 208 208 209 209 209 211 214 215 217 219 222 224 227 231 231 231 231 228 223 220 218 216 215 212 205 198 193 195 198 198 197 200 205 207 207 210 212 215 216 217 217 216 216 215 214 216 219 221 221 221 222 221 222 225 228 230 230 227 224 224
194 191 191 194 200 203 203 201 199 200 201 200 200 201 204 204 206 207 208 208 208 209 209 209 209 209 209 209 208 208 209 209 208 211 214 215 217 218 222 224 226 230 231 231 231 233 227 221 220 217 215 212 205 197 193 196 198 197 198 203 207 209 209 210 213 214 216 217 218 218 218 216 214 216 218 218 219 221 222 222 222 224 226 227 227 225 223 222
196 190 189 192 199 200 200 199 196 197 198 198 198 200 202 202 204 206 207 208 208 208 208 208 209 208 208 209 208 207 208 208 207 210 213 215 218 219 222 225 226 229 230 230 230 233 232 224 221 219 215 213 210 201 195 196 197 196 199 204 208 210 211 211 213 214 215 217 217 218 217 215 216 216 215 216 217 219 221 223 223 225 225 224 225 224 223 220
192 188 187 190 198 201 200 197 194 196 196 197 197 198 200 200 203 205 205 207 208 207 208 208 208 207 207 208 207 207 206 206 207 209 211 214 218 220 223 226 227 228 230 229 229 231 234 229 223 221 217 214 211 202 196 197 197 196 201 205 208 212 212 212 214 215 215 216 217 217 216 216 218 217 216 216 216 218 220 221 223 225 225 223 224 225 224 221
190 187 186 186 194 200 199 196 193 195 195 195 196 197 198 198 201 204 203 206 207 206 207 207 208 207 207 208 207 207 206 205 207 209 211 214 217 219 222 225 227 229 229 229 229 230 233 233 226 223 219 214 209 201 197 198 197 197 202 207 209 212 214 213 215 216 215 216 217 216 216 219 221 218 219 219 217 218 219 220 222 223 223 222 223 225 225 224
190 186 186 183 191 199 198 195 192 193 194 194 195 196 196 197 199 202 202 204 205 205 206 206 206 206 207 207 207 207 206 206 208 209 211 212 215 218 221 224 226 228 229 229 230 230 232 235 231 227 221 213 206 201 199 198 198 198 203 208 209 213 216 214 215 218 218 218 218 217 217 221 222 218 221 221 220 221 220 220 221 220 221 221 222 224 225 224
188 186 186 181 189 198 195 192 191 192 193 194 194 195 195 196 198 200 202 203 203 202 203 203 203 205 205 205 207 209 207 206 208 210 211 212 214 217 220 224 226 228 229 229 230 231 232 234 235 232 224 214 206 203 202 200 199 200 205 208 209 213 216 215 214 217 218 219 220 220 219 223 223 219 221 222 221 223 222 221 221 220 220 221 222 223 224 224
186 187 187 183 190 197 193 191 191 192 193 193 193 194 194 194 196 199 202 203 203 204 206 206 206 207 206 206 208 210 208 206 207 209 210 212 214 216 220 223 225 228 229 230 231 232 233 234 237 237 230 221 212 205 203 201 199 203 206 208 210 214 216 215 214 216 218 219 220 221 221 224 226 220 221 222 221 222 223 221 221 221 221 221 222 222 223 223
185 188 189 189 193 195 192 190 190 192 193 194 194 194 193 193 194 198 200 202 204 208 209 210 211 209 207 207 210 210 209 208 207 208 210 211 214 216 219 222 225 228 228 229 231 231 233 234 237 241 236 226 215 205 201 200 200 203 206 206 211 215 215 216 216 216 220 221 220 221 220 221 225 222 221 222 221 222 223 223 222 222 222 222 222 222 223 222
187 189 186 192 197 194 191 190 190 192 193 194 195 196 196 196 199 202 203 203 204 206 207 207 208 208 206 207 210 210 210 209 207 208 209 210 213 215 218 222 225 228 229 229 230 231 233 233 236 241 233 222 214 205 201 201 202 204 206 206 209 213 213 215 216 214 217 220 219 220 219 218 222 223 222 223 222 222 224 224 223 224 224 223 223 224 224 223
188 189 184 192 197 193 190 189 190 191 192 193 194 196 197 199 203 206 207 208 208 208 207 205 205 206 205 206 210 210 210 210 209 209 210 211 213 216 218 221 224 227 228 230 230 231 232 231 234 237 229 219 212 205 202 203 203 206 209 208 209 213 213 214 215 214 215 219 219 220 220 218 220 224 224 225 223 222 224 225 224 225 226 225 224 226 227 226
188 191 188 191 193 191 190 189 190 191 192 193 193 194 196 198 201 202 204 208 210 210 207 205 205 205 205 207 211 210 210 210 209 210 211 212 213 216 219 221 224 227 228 230 231 232 232 232 233 235 231 220 211 205 203 204 204 208 211 211 212 215 215 215 214 215 216 218 221 221 221 219 220 224 226 226 224 222 225 227 226 226 227 227 226 227 228 228
190 193 193 193 190 189 189 189 190 191 190 192 193 194 196 197 198 198 200 204 208 211 209 205 205 205 204 207 211 211 211 211 210 210 210 211 213 215 218 221 224 227 229 230 230 232 232 232 234 236 235 223 212 207 205 205 206 209 211 212 214 216 217 217 215 217 219 219 222 223 223 219 219 224 227 229 227 224 225 228 228 228 229 229 228 227 228 230
190 192 194 193 189 188 189 189 190 190 189 191 193 194 195 196 197 197 200 202 205 209 209 206 206 205 202 204 208 209 210 210 210 211 210 210 212 214 217 220 223 226 228 229 230 231 231 230 232 237 237 227 216 209 206 207 209 211 212 213 217 219 218 218 217 218 221 221 222 225 226 221 219 225 228 229 231 228 226 229 229 229 230 230 230 229 230 231
189 192 195 193 190 190 190 190 190 189 189 191 192 194 195 196 196 196 199 202 205 206 205 207 209 206 201 203 206 207 208 208 208 210 210 209 210 211 215 218 221 225 227 228 228 230 230 229 230 233 236 230 220 211 207 209 211 212 213 214 219 221 219 219 220 220 221 223 223 225 228 224 219 224 228 228 230 230 227 228 230 230 230 231 231 231 231 233
189 193 196 194 192 193 193 191 190 190 190 191 192 193 195 196 196 196 197 200 204 205 203 205 209 207 204 205 206 207 208 207 208 210 210 209 209 210 214 216 219 223 226 228 228 229 230 229 229 232 235 233 228 219 211 210 213 214 214 215 220 223 221 220 221 222 222 224 225 225 229 228 220 221 227 229 229 230 229 228 229 231 232 232 232 233 232 234
191 195 196 194 195 196 195 192 191 191 191 192 193 193 195 197 195 195 198 200 202 202 201 202 204 205 206 207 209 209 208 207 208 210 209 209 209 210 213 215 216 220 224 228 230 231 232 232 231 233 236 237 236 229 218 214 214 215 216 216 219 224 224 222 223 225 224 225 226 225 228 231 224 218 226 231 229 230 231 231 230 231 234 233 232 233 233 234
195 199 196 194 194 192 190 190 191 190 190 192 193 192 194 196 195 195 199 202 202 201 200 200 201 203 204 205 208 210 209 209 210 210 211 212 211 210 213 215 216 220 222 226 230 230 231 233 232 234 237 238 239 235 225 218 216 217 218 218 220 224 226 224 225 226 226 227 227 225 228 233 229 219 222 231 231 230 232 233 232 230 232 234 233 233 234 235
197 200 197 194 193 191 189 189 190 189 190 192 192 192 194 194 194 195 198 201 201 200 199 198 199 202 203 204 207 208 209 210 210 210 211 213 213 212 214 216 218 222 224 227 231 232 231 232 232 234 236 237 239 238 231 223 219 219 219 220 221 224 226 226 226 228 229 228 226 226 228 233 233 224 221 229 232 231 232 233 234 232 230 232 235 234 234 236
197 199 197 195 194 194 192 189 190 191 192 192 190 192 194 194 194 196 198 200 200 200 199 197 197 200 202 205 207 208 209 210 210 211 212 212 214 214 216 218 220 223 226 228 234 237 235 235 235 236 236 238 238 239 237 230 224 222 221 221 222 223 225 227 227 228 230 228 226 227 229 232 234 228 224 228 231 230 231 233 236 236 233 232 235 236 236 237
198 200 197 195 194 193 192 190 190 191 193 193 192 193 194 193 195 197 199 200 200 200 199 198 198 199 200 203 206 208 209 209 210 213 214 214 217 218 220 223 224 226 230 231 234 237 238 236 237 237 237 238 239 240 241 237 231 226 224 223 223 223 225 228 229 229 229 228 227 229 230 232 234 232 227 228 232 231 231 234 237 240 239 235 234 237 238 239
199 201 196 193 193 192 191 190 190 192 193 193 194 195 195 195 196 198 199 201 201 200 200 200 200 201 201 201 203 207 208 209 210 212 213 214 216 219 221 223 224 228 233 235 236 238 240 240 239 241 241 240 241 242 242 242 239 233 228 226 225 224 226 228 230 231 230 229 230 230 232 233 234 234 231 229 234 235 232 233 237 241 243 241 237 237 238 240
197 199 196 194 194 192 190 189 191 193 193 192 194 196 197 198 199 199 201 202 202 200 199 200 199 200 202 202 204 206 207 207 209 212 214 214 215 216 219 223 224 225 229 232 235 238 242 244 244 246 247 246 246 245 245 245 243 236 230 228 226 225 227 230 232 233 232 231 232 232 234 234 233 236 235 232 235 239 237 235 236 240 244 244 242 240 239 240
195 196 196 195 194 191 189 190 192 194 194 193 194 196 198 199 200 202 202 202 202 200 198 199 200 200 201 202 204 205 207 208 207 210 214 216 219 219 220 223 225 227 230 233 236 238 239 241 242 243 245 247 247 247 247 246 243 239 233 231 229 227 228 230 232 234 234 235 234 233 234 234 234 237 238 236 235 238 241 239 236 237 241 244 245 243 241 241
195 197 197 196 194 190 189 191 193 194 196 196 195 197 199 200 201 204 205 204 204 202 199 199 199 201 202 202 203 204 207 209 209 211 213 214 218 220 221 224 226 231 236 238 239 241 240 241 242 241 241 243 245 246 247 246 245 243 238 235 233 231 229 230 232 233 235 237 235 234 234 235 235 237 239 239 236 236 240 241 239 238 238 241 244 245 244 243
197 199 199 196 192 189 190 193 194 196 197 198 198 198 199 200 202 204 205 204 205 204 201 201 201 201 202 204 205 205 207 209 210 212 215 215 217 219 220 223 225 229 235 237 238 240 241 243 243 243 243 244 244 245 246 246 246 246 243 240 236 233 231 231 233 234 235 237 236 234 235 236 236 237 238 240 239 237 239 241 242 242 240 240 242 245 246 246
200 201 200 196 191 189 191 193 195 197 198 199 200 200 199 200 202 203 205 204 206 205 203 205 205 204 204 206 207 207 208 210 211 212 214 215 217 219 221 223 224 225 228 232 234 235 236 238 239 239 241 244 244 244 244 244 245 247 247 246 240 236 234 233 233 235 235 236 236 235 236 236 236 236 237 240 241 240 241 242 243 245 244 243 242 243 246 248
201 201 200 196 191 190 192 194 196 198 199 200 201 199 200 202 202 204 206 205 206 207 205 205 207 207 208 208 208 208 209 211 213 213 215 215 216 217 218 222 224 224 226 229 231 233 232 233 236 236 237 239 241 243 244 245 245 246 247 248 244 240 239 236 235 236 237 238 238 237 237 237 237 236 237 240 243 242 242 244 245 245 246 246 245 244 245 247
199 201 199 197 193 191 193 195 197 199 201 201 201 200 200 202 203 205 207 206 206 208 207 206 207 208 210 210 210 210 210 212 214 215 215 216 216 216 216 219 221 222 225 227 229 232 232 231 234 236 235 236 239 242 245 245 246 247 248 249 249 246 243 240 238 237 238 239 239 239 239 238 238 237 236 238 242 244 244 245 246 247 247 247 247 246 245 245
198 200 199 198 196 193 194 196 198 200 201 201 201 202 201 201 202 205 208 208 208 209 208 208 208 209 211 212 213 212 211 213 215 216 217 217 217 219 219 220 221 220 223 226 228 231 232 232 234 236 236 237 239 241 243 243 244 247 249 250 251 250 247 244 241 240 240 240 240 241 241 239 238 239 238 237 240 245 246 247 247 247 247 248 248 247 247 246
201 201 201 200 198 196 196 198 199 200 201 201 202 203 202 202 202 204 207 207 208 209 210 210 209 211 212 213 214 215 214 215 216 217 219 219 220 221 223 223 224 223 225 228 230 232 234 236 237 239 241 240 240 240 241 243 243 244 246 248 249 250 249 247 246 245 243 242 242 243 243 241 239 240 241 239 239 243 246 248 249 249 248 248 249 249 248 248
205 204 202 201 200 199 199 199 200 200 201 202 202 203 204 203 203 204 206 207 207 208 210 210 210 211 213 214 215 215 216 218 220 220 221 222 222 222 224 225 225 227 228 229 232 232 234 236 238 240 242 243 243 243 243 243 245 247 249 250 250 252 253 252 251 249 246 244 243 243 245 243 240 241 243 242 240 242 243 244 247 249 249 249 249 249 249 249
206 204 202 200 199 199 200 201 201 202 202 202 203 204 204 205 205 206 206 207 207 208 209 209 209 210 212 214 215 216 216 218 220 220 221 225 225 224 226 227 226 228 229 231 234 235 236 237 237 238 240 240 240 241 243 245 247 249 249 249 249 251 251 250 249 249 247 247 246 245 246 246 244 243 243 243 242 241 242 243 245 247 249 250 250 250 250 250
206 204 201 200 200 200 200 202 204 204 203 203 203 204 205 205 206 207 208 208 208 209 210 210 210 210 212 214 215 216 216 217 218 218 219 222 224 223 224 226 227 227 228 229 231 233 236 239 240 240 241 242 242 245 249 253 253 253 252 252 254 254 254 253 251 250 249 250 250 248 249 250 248 246 246 246 245 244 245 246 247 248 249 250 251 251 252 252
206 205 200 198 200 201 202 203 204 205 205 204 204 205 205 205 206 207 210 211 210 210 211 212 211 212 214 215 216 216 217 217 217 218 219 220 221 222 221 222 224 224 224 225 226 227 231 234 236 239 241 243 245 249 250 252 253 254 255 258 259 260 260 258 254 252 253 255 254 253 254 254 251 249 249 249 249 248 247 247 249 251 251 250 251 251 252 252
205 208 205 202 201 202 203 204 205 207 208 207 207 206 206 205 206 208 210 211 211 211 212 213 213 213 214 215 215 216 217 218 218 218 218 218 218 220 220 221 223 223 222 223 225 226 229 232 234 237 240 241 243 245 245 244 247 249 248 249 251 253 255 256 255 256 257 256 255 255 257 256 252 251 250 250 250 250 248 248 248 250 251 252 251 252 252 253
205 208 208 207 206 204 204 205 207 209 209 210 210 210 209 207 207 208 210 210 211 211 212 213 213 213 214 215 216 217 217 218 218 218 219 219 218 219 219 219 221 222 220 221 224 226 229 232 234 236 238 240 242 245 246 245 246 248 250 251 251 250 250 251 253 254 254 255 256 256 257 255 253 252 251 250 250 249 248 248 248 249 251 252 253 254 254 255
205 208 208 208 209 208 207 206 207 209 210 210 211 212 212 211 209 209 210 211 211 211 211 213 213 213 214 215 217 219 219 218 218 218 219 219 220 221 221 220 220 221 220 221 223 226 228 232 234 235 237 239 241 243 247 248 247 247 249 252 254 255 255 254 256 257 257 258 260 259 258 256 254 255 255 252 252 252 251 251 251 251 251 253 255 257 258 258
204 207 209 209 208 209 209 209 208 208 210 210 211 212 213 213 213 212 213 213 213 212 211 212 213 214 215 216 217 218 219 220 222 223 223 222 223 224 224 223 222 221 221 222 223 226 229 232 235 237 239 241 242 245 248 250 251 249 247 247 250 254 255 255 256 258 259 262 264 263 261 259 257 261 262 259 257 256 255 254 253 253 254 255 256 258 258 258
201 205 209 210 209 209 211 211 210 211 211 210 211 212 213 214 214 214 215 215 215 215 214 214 215 216 217 218 218 218 219 220 222 225 226 228 229 230 230 229 227 226 226 227 229 231 233 236 240 242 244 245 247 249 250 250 251 250 248 248 250 254 257 258 258 258 260 262 263 262 262 262 262 265 266 264 262 261 258 256 255 255 255 256 256 256 257 257
199 203 207 210 211 210 211 212 212 213 213 213 212 213 215 215 214 215 215 215 215 216 216 218 220 220 220 220 220 220 222 223 223 223 223 224 226 227 228 229 229 230 231 232 235 236 237 240 242 243 245 247 248 249 250 249 248 249 253 258 260 261 262 262 261 260 261 261 261 261 263 265 266 265 263 262 262 262 260 257 256 255 255 255 254 255 255 256
Height
5636 5641 5646 5651 5658 5665 5671 5677 5683 5689 5696 5700 5705 5710 5715 5719 5724 5728 5732 5736 5740 5745 5749 5753 5757 5761 5764 5768 5770 5773 5775 5777 5779 5781 5785 5790 5790 5791 5794 5797 5800 5803 5806 5809 5812 5815 5818 5819 5820 5822 5825 5828 5831 5834 5838 5842 5843 5845 5848 5851 5854 5857 5859 5860 5861 5863 5866 5870 5871 5873 5875 5876 5878 5879 5880 5881 5881 5883 5884 5885 5886 5886 5887 5888 5890 5890 5891 5892
5632 5636 5640 5644 5651 5659 5665 5672 5677 5684 5691 5696 5701 5706 5711 5715 5720 5724 5728 5733 5736 5740 5745 5749 5754 5757 5761 5763 5766 5769 5771 5773 5776 5779 5784 5786 5786 5789 5791 5794 5798 5801 5803 5806 5808 5811 5814 5815 5818 5821 5823 5825 5829 5832 5835 5839 5841 5844 5848 5851 5853 5855 5855 5857 5859 5863 5867 5869 5870 5872 5874 5875 5877 5878 5879 5880 5881 5882 5883 5884 5885 5886 5887 5888 5889 5890 5891 5892
5626 5629 5633 5639 5646 5654 5659 5666 5672 5679 5686 5692 5697 5703 5707 5712 5716 5720 5725 5729 5732 5737 5741 5745 5750 5754 5757 5759 5761 5764 5767 5769 5773 5778 5782 5782 5783 5787 5789 5791 5795 5797 5801 5803 5805 5808 5811 5813 5816 5819 5821 5823 5826 5829 5832 5835 5839 5843 5846 5849 5851 5851 5852 5855 5859 5863 5865 5867 5868 5870 5872 5873 5875 5877 5878 5879 5880 5881 5883 5884 5885 5885 5886 5887 5888 5889 5890 5891
5617 5622 5627 5632 5640 5648 5654 5661 5667 5674 5681 5687 5693 5700 5704 5708 5712 5717 5721 5725 5729 5733 5737 5741 5745 5750 5754 5756 5758 5761 5763 5766 5771 5777 5779 5779 5780 5784 5786 5789 5791 5794 5798 5800 5803 5806 5808 5810 5813 5816 5818 5821 5824 5827 5830 5833 5837 5840 5844 5847 5847 5848 5852 5855 5858 5860 5862 5864 5865 5868 5870 5872 5874 5875 5877 5878 5879 5881 5882 5883 5884 5885 5886 5887 5888 5889 5890 5890
5610 5616 5621 5626 5634 5642 5648 5655 5661 5669 5676 5683 5690 5696 5700 5705 5709 5713 5717 5721 5725 5730 5734 5737 5741 5745 5748 5751 5753 5757 5760 5763 5770 5774 5775 5775 5777 5781 5783 5785 5788 5791 5795 5798 5800 5803 5806 5808 5810 5812 5815 5818 5822 5824 5828 5831 5834 5838 5842 5844 5845 5848 5854 5856 5857 5858 5860 5862 5864 5866 5868 5870 5873 5874 5875 5877 5878 5880 5881 5883 5883 5885 5886 5887 5888 5888 5889 5890
5604 5611 5617 5622 5630 5636 5642 5649 5656 5663 5671 5678 5685 5692 5697 5701 5706 5709 5713 5717 5722 5726 5730 5734 5737 5740 5743 5746 5749 5753 5756 5760 5767 5770 5770 5772 5775 5778 5780 5782 5786 5787 5791 5795 5797 5800 5803 5804 5807 5809 5811 5814 5817 5822 5826 5829 5832 5836 5839 5842 5844 5849 5854 5855 5856 5858 5859 5861 5863 5865 5867 5870 5871 5872 5874 5875 5877 5879 5880 5882 5883 5885 5886 5886 5887 5888 5888 5889
5599 5606 5613 5618 5626 5632 5636 5643 5650 5658 5666 5674 5681 5688 5693 5698 5702 5706 5710 5714 5718 5722 5727 5730 5733 5736 5739 5743 5746 5749 5754 5758 5764 5766 5767 5769 5771 5775 5777 5779 5783 5785 5787 5791 5793 5797 5799 5801 5803 5806 5808 5811 5814 5818 5822 5825 5830 5834 5836 5838 5842 5847 5850 5852 5854 5856 5858 5860 5861 5863 5866 5868 5869 5871 5873 5874 5876 5878 5879 5880 5882 5885 5885 5885 5886 5887 5887 5888
5593 5601 5608 5613 5621 5627 5631 5638 5646 5654 5662 5670 5677 5684 5689 5694 5698 5702 5706 5710 5715 5719 5723 5726 5729 5732 5736 5740 5743 5747 5753 5756 5760 5762 5762 5765 5768 5771 5774 5777 5780 5782 5784 5786 5790 5793 5794 5797 5800 5802 5806 5809 5812 5814 5817 5822 5826 5829 5833 5836 5840 5844 5847 5849 5852 5854 5856 5858 5860 5861 5863 5865 5867 5870 5872 5873 5875 5877 5878 5879 5881 5883 5884 5884 5885 5886 5886 5887
5588 5595 5602 5607 5616 5622 5627 5634 5642 5649 5658 5665 5673 5680 5685 5690 5694 5699 5703 5707 5711 5715 5718 5722 5725 5729 5733 5737 5740 5745 5750 5752 5756 5758 5759 5762 5765 5768 5772 5774 5776 5779 5781 5783 5786 5789 5792 5795 5797 5799 5802 5805 5809 5811 5813 5818 5822 5825 5830 5834 5839 5842 5845 5847 5849 5852 5854 5856 5858 5859 5861 5863 5865 5867 5868 5870 5874 5875 5876 5878 5880 5882 5882 5883 5884 5885 5886 5886
5581 5590 5597 5602 5610 5617 5623 5629 5637 5645 5653 5661 5669 5675 5680 5686 5691 5695 5700 5704 5708 5711 5714 5718 5721 5725 5730 5734 5738 5742 5745 5748 5751 5754 5756 5759 5762 5766 5769 5772 5773 5775 5778 5780 5783 5786 5789 5791 5793 5796 5798 5802 5806 5809 5812 5816 5819 5822 5826 5832 5836 5840 5842 5845 5847 5850 5852 5854 5856 5857 5859 5861 5863 5865 5867 5870 5873 5874 5875 5877 5879 5880 5881 5882 5883 5884 5885 5886
5575 5584 5592 5598 5604 5612 5618 5625 5633 5641 5649 5657 5664 5670 5676 5682 5687 5692 5696 5700 5704 5707 5710 5714 5718 5723 5727 5731 5735 5739 5741 5744 5748 5750 5753 5757 5760 5763 5767 5769 5771 5773 5775 5778 5780 5783 5785 5787 5790 5793 5795 5799 5803 5806 5811 5816 5817 5820 5824 5830 5833 5835 5839 5841 5844 5847 5849 5852 5854 5856 5858 5859 5862 5865 5867 5869 5871 5872 5873 5875 5877 5878 5879 5880 5882 5883 5884 5885
5569 5579 5588 5594 5601 5608 5614 5621 5629 5637 5645 5652 5658 5665 5672 5678 5683 5688 5692 5696 5700 5703 5706 5710 5715 5719 5722 5727 5731 5734 5737 5741 5745 5748 5751 5754 5757 5760 5763 5766 5768 5770 5772 5775 5778 5780 5781 5784 5787 5790 5793 5797 5800 5804 5809 5813 5815 5819 5824 5828 5829 5832 5835 5838 5841 5844 5847 5850 5852 5854 5856 5858 5862 5865 5865 5867 5869 5870 5872 5873 5875 5876 5877 5879 5881 5882 5883 5883
5566 5575 5584 5590 5596 5603 5610 5617 5625 5632 5640 5647 5654 5661 5668 5674 5679 5684 5689 5693 5696 5699 5703 5708 5711 5715 5719 5724 5728 5731 5734 5738 5743 5745 5748 5751 5754 5757 5760 5763 5766 5768 5769 5773 5775 5777 5779 5781 5784 5786 5790 5793 5797 5801 5805 5808 5811 5817 5822 5824 5826 5829 5832 5835 5838 5841 5844 5846 5849 5851 5853 5858 5861 5861 5862 5864 5866 5867 5870 5871 5873 5874 5875 5878 5879 5880 5881 5882
5563 5571 5580 5586 5592 5599 5606 5614 5621 5628 5636 5642 5649 5656 5663 5669 5675 5680 5686 5690 5692 5695 5700 5703 5707 5711 5716 5720 5724 5727 5731 5736 5741 5743 5746 5749 5752 5755 5757 5760 5763 5765 5767 5770 5772 5775 5777 5779 5781 5783 5786 5790 5794 5799 5801 5804 5808 5814 5817 5819 5822 5825 5828 5833 5835 5838 5841 5843 5846 5848 5852 5856 5856 5856 5859 5861 5863 5865 5867 5869 5871 5872 5874 5876 5877 5879 5880 5880
5559 5567 5576 5582 5588 5596 5603 5610 5617 5624 5631 5638 5645 5651 5659 5665 5671 5677 5682 5686 5688 5692 5696 5700 5704 5709 5713 5716 5720 5724 5728 5734 5738 5741 5744 5747 5750 5753 5755 5757 5760 5762 5764 5767 5769 5772 5774 5776 5778 5781 5784 5788 5792 5796 5799 5802 5806 5811 5813 5815 5819 5822 5826 5830 5832 5835 5838 5841 5843 5846 5850 5852 5851 5854 5857 5859 5861 5863 5865 5867 5869 5870 5872 5874 5875 5877 5878 5879
5555 5564 5571 5577 5584 5592 5598 5605 5613 5620 5627 5634 5640 5646 5654 5661 5667 5673 5678 5682 5684 5688 5693 5696 5701 5706 5709 5713 5717 5721 5726 5732 5736 5739 5742 5745 5747 5750 5752 5755 5757 5759 5761 5764 5766 5769 5772 5773 5775 5778 5781 5785 5789 5793 5796 5799 5804 5808 5810 5812 5817 5820 5823 5827 5829 5832 5835 5838 5841 5844 5848 5848 5849 5854 5856 5857 5860 5861 5862 5864 5866 5868 5870 5872 5874 5875 5876 5877
5552 5560 5567 5574 5581 5587 5594 5601 5608 5615 5622 5628 5635 5643 5649 5656 5663 5668 5672 5675 5679 5685 5690 5693 5698 5702 5705 5710 5715 5720 5725 5730 5734 5737 5739 5742 5745 5748 5750 5752 5754 5756 5758 5761 5763 5766 5769 5771 5773 5775 5778 5781 5785 5790 5793 5796 5800 5804 5806 5809 5814 5817 5820 5825 5828 5831 5834 5837 5839 5843 5845 5846 5849 5853 5855 5856 5858 5858 5860 5862 5864 5866 5868 5870 5871 5873 5874 5876
5550 5557 5563 5570 5577 5583 5589 5596 5603 5610 5618 5625 5632 5638 5644 5651 5659 5664 5667 5670 5674 5678 5682 5687 5692 5697 5703 5710 5716 5719 5723 5727 5731 5734 5737 5739 5742 5745 5748 5750 5752 5754 5756 5758 5761 5764 5767 5769 5771 5772 5775 5778 5782 5786 5790 5794 5798 5800 5802 5807 5813 5815 5817 5822 5826 5829 5832 5836 5838 5841 5844 5845 5848 5852 5853 5854 5855 5856 5858 5859 5861 5864 5866 5868 5869 5871 5873 5874
5547 5554 5560 5566 5572 5579 5586 5593 5600 5607 5614 5619 5625 5632 5639 5646 5653 5658 5660 5664 5669 5675 5682 5689 5696 5702 5709 5713 5715 5717 5721 5724 5727 5731 5734 5737 5740 5743 5745 5747 5749 5752 5754 5756 5759 5762 5764 5767 5769 5771 5774 5777 5780 5783 5787 5792 5795 5797 5801 5807 5812 5812 5814 5819 5824 5827 5830 5833 5835 5838 5842 5844 5847 5849 5850 5851 5852 5853 5855 5857 5860 5862 5864 5866 5867 5869 5871 5872
5545 5552 5558 5563 5568 5575 5582 5590 5597 5604 5610 5615 5621 5627 5633 5639 5645 5649 5655 5663 5674 5683 5691 5697 5702 5706 5709 5710 5711 5714 5716 5719 5723 5727 5731 5734 5737 5740 5742 5744 5747 5749 5752 5755 5757 5760 5762 5765 5768 5771 5773 5776 5778 5780 5784 5788 5791 5794 5798 5804 5806 5807 5813 5819 5823 5827 5829 5831 5833 5836 5839 5841 5843 5845 5846 5847 5848 5850 5852 5855 5858 5860 5862 5864 5865 5867 5868 5870
5543 5549 5555 5561 5567 5572 5579 5587 5595 5602 5609 5616 5623 5629 5635 5641 5647 5654 5662 5670 5679 5685 5689 5694 5697 5699 5703 5705 5707 5709 5711 5715 5720 5723 5727 5731 5733 5736 5739 5742 5745 5748 5750 5753 5755 5757 5760 5763 5766 5769 5771 5773 5775 5778 5781 5785 5789 5791 5793 5797 5800 5805 5811 5815 5819 5823 5825 5827 5829 5831 5833 5836 5838 5841 5843 5843 5845 5848 5851 5854 5856 5858 5860 5861 5863 5865 5866 5867
5541 5547 5552 5559 5565 5571 5578 5586 5593 5600 5607 5614 5622 5630 5639 5646 5653 5662 5669 5673 5676 5680 5684 5687 5690 5694 5699 5701 5702 5705 5709 5713 5717 5721 5724 5727 5730 5733 5737 5740 5743 5746 5748 5750 5753 5755 5758 5761 5765 5767 5768 5771 5774 5777 5779 5782 5786 5788 5790 5794 5800 5804 5807 5810 5815 5819 5821 5823 5825 5826 5829 5833 5836 5838 5839 5840 5843 5847 5849 5851 5854 5856 5857 5859 5861 5863 5864 5865
5539 5544 5549 5555 5562 5569 5576 5584 5591 5597 5604 5613 5621 5629 5637 5644 5651 5659 5664 5667 5671 5673 5677 5682 5685 5690 5695 5697 5699 5703 5707 5711 5715 5718 5722 5725 5728 5731 5734 5738 5740 5743 5746 5748 5751 5754 5756 5760 5762 5764 5766 5768 5771 5774 5776 5779 5782 5785 5789 5795 5800 5802 5804 5808 5813 5816 5818 5819 5821 5822 5826 5830 5833 5834 5835 5837 5842 5845 5846 5849 5851 5853 5855 5857 5859 5860 5861 5863
5537 5543 5548 5553 5559 5566 5574 5581 5587 5595 5604 5613 5620 5627 5633 5639 5647 5653 5656 5661 5665 5668 5673 5678 5680 5685 5690 5693 5697 5701 5705 5709 5712 5715 5719 5723 5726 5729 5732 5735 5738 5741 5744 5747 5749 5751 5754 5758 5760 5762 5764 5766 5768 5770 5773 5777 5781 5784 5788 5793 5796 5799 5801 5805 5810 5813 5815 5816 5818 5820 5822 5825 5830 5831 5833 5836 5840 5843 5844 5846 5848 5850 5853 5855 5856 5858 5859 5861
5535 5541 5546 5551 5557 5563 5571 5577 5585 5594 5602 5609 5616 5623 5630 5636 5642 5646 5651 5656 5659 5664 5670 5673 5675 5680 5686 5689 5691 5696 5701 5705 5709 5712 5717 5720 5723 5727 5730 5732 5735 5739 5742 5744 5747 5749 5752 5755 5758 5760 5762 5764 5765 5769 5773 5776 5779 5782 5785 5790 5793 5795 5798 5803 5807 5810 5811 5813 5816 5817 5818 5822 5828 5829 5831 5835 5837 5840 5842 5843 5845 5848 5850 5851 5853 5856 5857 5858
5533 5539 5544 5549 5555 5561 5567 5575 5585 5593 5599 5606 5614 5622 5627 5632 5636 5641 5647 5651 5653 5658 5665 5670 5673 5679 5683 5683 5685 5691 5696 5700 5705 5710 5713 5717 5720 5724 5726 5729 5733 5736 5739 5741 5743 5746 5749 5753 5756 5757 5759 5761 5763 5767 5771 5773 5776 5779 5783 5787 5790 5792 5796 5801 5804 5806 5808 5809 5812 5814 5814 5819 5825 5827 5828 5831 5832 5835 5838 5840 5843 5845 5846 5849 5851 5854 5855 5855
5531 5536 5542 5548 5554 5561 5568 5577 5585 5591 5599 5606 5612 5619 5624 5628 5633 5638 5642 5643 5646 5653 5660 5666 5672 5678 5680 5680 5684 5688 5692 5699 5704 5707 5710 5714 5717 5721 5723 5727 5730 5733 5736 5738 5740 5744 5747 5750 5753 5754 5757 5759 5761 5765 5768 5770 5773 5776 5780 5784 5786 5789 5793 5798 5800 5802 5804 5805 5808 5811 5812 5814 5820 5824 5825 5826 5828 5832 5835 5838 5840 5842 5844 5847 5849 5851 5852 5853
5529 5534 5540 5548 5555 5563 5571 5578 5584 5592 5601 5605 5608 5614 5619 5624 5629 5633 5634 5635 5640 5649 5656 5662 5668 5673 5676 5678 5683 5688 5693 5699 5701 5703 5707 5711 5714 5717 5720 5724 5727 5729 5732 5735 5738 5742 5745 5748 5751 5752 5755 5757 5761 5764 5766 5768 5770 5773 5778 5781 5784 5786 5790 5794 5797 5798 5800 5801 5803 5807 5810 5809 5814 5822 5822 5822 5825 5829 5832 5835 5838 5840 5841 5844 5846 5847 5849 5850
5528 5533 5539 5546 5552 5559 5567 5576 5583 5591 5595 5598 5603 5608 5612 5618 5624 5627 5628 5630 5637 5646 5652 5659 5664 5667 5670 5675 5681 5687 5692 5695 5697 5702 5706 5708 5711 5715 5718 5720 5723 5726 5730 5733 5736 5739 5742 5745 5748 5751 5753 5756 5760 5761 5763 5766 5768 5771 5775 5778 5781 5784 5787 5791 5793 5794 5796 5795 5798 5805 5808 5806 5809 5817 5819 5818 5822 5827 5830 5833 5835 5837 5838 5840 5842 5844 5846 5847
5526 5531 5537 5542 5547 5554 5562 5571 5579 5585 5586 5590 5598 5603 5606 5611 5616 5618 5619 5624 5634 5642 5648 5654 5659 5664 5668 5673 5678 5684 5689 5691 5696 5700 5702 5705 5709 5713 5715 5717 5721 5724 5728 5731 5733 5736 5739 5742 5745 5748 5750 5754 5757 5758 5760 5764 5766 5769 5772 5774 5778 5781 5783 5787 5788 5790 5790 5790 5796 5803 5805 5803 5803 5811 5816 5817 5820 5824 5827 5829 5830 5832 5835 5837 5839 5841 5842 5844
5525 5529 5535 5541 5547 5554 5560 5566 5574 5580 5583 5587 5592 5596 5600 5605 5609 5610 5613 5623 5633 5638 5644 5650 5655 5660 5666 5671 5676 5682 5685 5689 5693 5696 5698 5702 5706 5709 5711 5714 5718 5722 5725 5729 5731 5733 5736 5739 5742 5746 5748 5751 5753 5755 5757 5760 5763 5766 5768 5771 5774 5777 5780 5781 5783 5784 5784 5786 5794 5799 5800 5799 5798 5805 5813 5814 5815 5820 5823 5825 5827 5829 5833 5835 5837 5838 5839 5841
5523 5528 5534 5540 5546 5552 5558 5565 5571 5574 5579 5586 5588 5590 5594 5599 5602 5604 5612 5623 5628 5633 5642 5648 5653 5659 5665 5670 5674 5678 5681 5685 5690 5693 5696 5701 5703 5705 5709 5712 5716 5719 5722 5726 5728 5730 5733 5736 5739 5742 5745 5747 5749 5752 5754 5757 5761 5763 5765 5767 5770 5773 5775 5776 5777 5779 5781 5785 5791 5794 5795 5795 5794 5800 5810 5812 5812 5818 5822 5824 5825 5827 5830 5833 5834 5835 5836 5838
5521 5526 5530 5536 5542 5548 5554 5561 5565 5566 5572 5580 5584 5588 5591 5592 5594 5603 5614 5620 5625 5635 5644 5649 5654 5659 5661 5664 5668 5672 5677 5683 5687 5689 5693 5697 5699 5703 5706 5710 5714 5717 5721 5724 5726 5728 5730 5733 5737 5740 5742 5744 5746 5748 5751 5754 5758 5760 5762 5763 5766 5768 5769 5771 5773 5776 5779 5783 5787 5790 5790 5791 5793 5798 5805 5810 5812 5816 5820 5822 5823 5825 5827 5829 5831 5832 5833 5834
5519 5523 5527 5532 5538 5544 5550 5556 5559 5563 5567 5571 5577 5583 5586 5588 5595 5606 5613 5619 5627 5635 5640 5645 5650 5654 5656 5660 5664 5668 5673 5678 5683 5686 5689 5692 5695 5700 5704 5708 5712 5715 5718 5720 5723 5726 5728 5731 5735 5737 5739 5742 5743 5746 5749 5752 5755 5757 5758 5758 5761 5764 5766 5769 5772 5774 5778 5781 5783 5785 5785 5787 5793 5797 5801 5808 5811 5813 5817 5820 5821 5822 5823 5825 5827 5828 5830 5831
5516 5519 5524 5529 5533 5540 5547 5551 5555 5560 5564 5566 5571 5576 5579 5587 5599 5606 5610 5617 5624 5630 5635 5641 5645 5648 5652 5657 5661 5665 5669 5673 5678 5681 5685 5690 5694 5699 5703 5706 5709 5711 5714 5717 5720 5723 5725 5728 5732 5734 5736 5738 5740 5742 5745 5748 5750 5751 5753 5754 5756 5761 5764 5766 5769 5772 5775 5776 5777 5779 5781 5785 5792 5795 5797 5804 5809 5810 5812 5815 5818 5819 5819 5821 5823 5824 5826 5827
5512 5514 5519 5524 5531 5538 5543 5547 5552 5556 5560 5564 5568 5570 5578 5590 5599 5605 5610 5617 5622 5626 5630 5634 5638 5643 5647 5650 5655 5660 5665 5670 5675 5678 5682 5688 5692 5696 5700 5704 5707 5709 5711 5715 5718 5720 5722 5725 5728 5730 5732 5733 5736 5738 5740 5743 5745 5746 5748 5750 5754 5758 5760 5762 5765 5768 5770 5770 5772 5775 5779 5784 5789 5791 5794 5799 5804 5807 5808 5810 5812 5814 5816 5817 5818 5820 5822 5823
5507 5511 5517 5522 5528 5534 5539 5544 5550 5553 5557 5563 5566 5571 5582 5593 5599 5602 5608 5613 5617 5622 5626 5628 5632 5637 5642 5647 5653 5658 5662 5667 5671 5675 5680 5684 5688 5693 5698 5701 5704 5707 5709 5712 5714 5716 5719 5721 5724 5727 5728 5730 5732 5734 5736 5739 5741 5742 5743 5747 5752 5753 5756 5760 5762 5764 5766 5766 5768 5773 5776 5780 5784 5787 5791 5794 5798 5802 5804 5806 5808 5810 5812 5814 5815 5816 5817 5819
5505 5511 5516 5519 5524 5530 5536 5541 5545 5550 5554 5559 5566 5576 5586 5590 5594 5598 5603 5608 5612 5618 5624 5628 5632 5637 5641 5646 5652 5656 5659 5662 5666 5671 5676 5680 5686 5692 5695 5697 5701 5703 5705 5707 5709 5712 5715 5717 5719 5722 5725 5726 5728 5730 5732 5734 5736 5738 5740 5744 5747 5748 5752 5757 5758 5759 5762 5762 5765 5768 5771 5774 5778 5783 5788 5790 5793 5796 5800 5803 5805 5806 5808 5810 5812 5813 5814 5816
5501 5505 5510 5514 5518 5524 5531 5535 5540 5545 5550 5555 5564 5574 5582 5585 5591 5596 5600 5605 5610 5615 5621 5626 5632 5637 5641 5645 5649 5652 5656 5660 5664 5668 5672 5677 5683 5687 5690 5694 5697 5699 5701 5703 5704 5707 5710 5712 5714 5717 5720 5721 5723 5726 5728 5730 5732 5734 5737 5739 5742 5744 5749 5752 5754 5756 5758 5759 5762 5765 5767 5770 5774 5780 5785 5786 5787 5791 5796 5799 5800 5802 5804 5806 5807 5809 5811 5812
5495 5500 5505 5509 5513 5519 5525 5531 5535 5539 5545 5554 5564 5572 5577 5582 5590 5595 5598 5603 5607 5611 5617 5623 5629 5634 5638 5642 5645 5649 5654 5658 5661 5665 5669 5674 5678 5682 5686 5689 5692 5695 5697 5698 5700 5702 5706 5708 5709 5712 5715 5717 5719 5722 5725 5727 5729 5731 5733 5736 5738 5741 5744 5747 5749 5752 5754 5755 5758 5759 5761 5765 5770 5775 5779 5782 5783 5787 5792 5794 5795 5797 5799 5800 5802 5804 5806 5807
5492 5496 5499 5503 5507 5513 5518 5522 5528 5536 5545 5555 5562 5567 5572 5578 5585 5589 5593 5599 5604 5609 5615 5621 5627 5631 5635 5638 5642 5647 5652 5655 5658 5662 5666 5671 5675 5679 5683 5685 5688 5690 5691 5693 5696 5698 5701 5703 5706 5708 5710 5714 5717 5719 5721 5723 5725 5728 5730 5732 5735 5737 5740 5742 5745 5748 5750 5752 5754 5755 5756 5760 5766 5770 5774 5779 5781 5783 5786 5788 5790 5792 5793 5795 5797 5799 5801 5802
5487 5490 5494 5498 5502 5507 5513 5519 5527 5537 5545 5550 5555 5562 5568 5574 5579 5583 5587 5594 5601 5607 5612 5618 5624 5628 5632 5636 5640 5645 5649 5652 5656 5660 5664 5669 5673 5676 5679 5681 5685 5687 5689 5690 5693 5696 5699 5701 5703 5705 5707 5711 5714 5715 5717 5719 5722 5724 5726 5729 5731 5733 5735 5737 5739 5743 5746 5747 5750 5751 5750 5754 5763 5767 5770 5775 5777 5779 5781 5783 5785 5786 5788 5790 5791 5793 5795 5797
5482 5487 5490 5494 5498 5504 5511 5518 5526 5533 5538 5544 5553 5560 5565 5570 5574 5577 5582 5588 5595 5601 5607 5613 5619 5624 5628 5632 5636 5641 5646 5650 5654 5658 5663 5666 5669 5672 5675 5678 5682 5684 5685 5688 5690 5693 5696 5696 5699 5701 5704 5707 5710 5712 5714 5716 5718 5720 5723 5725 5727 5728 5731 5733 5736 5739 5740 5741 5746 5747 5744 5750 5761 5765 5765 5769 5772 5773 5775 5778 5780 5781 5782 5784 5785 5787 5789 5791
5478 5482 5484 5487 5493 5499 5506 5514 5521 5527 5533 5541 5549 5554 5558 5563 5568 5573 5578 5584 5591 5597 5602 5608 5614 5619 5624 5628 5632 5637 5642 5646 5650 5655 5659 5661 5664 5668 5671 5674 5677 5679 5682 5685 5687 5690 5691 5691 5694 5697 5699 5701 5704 5706 5709 5712 5714 5716 5718 5720 5722 5724 5727 5728 5731 5734 5733 5736 5742 5742 5740 5747 5757 5760 5760 5762 5765 5768 5771 5774 5775 5776 5777 5778 5779 5781 5783 5786
5472 5475 5478 5483 5489 5496 5505 5514 5521 5526 5529 5535 5542 5547 5552 5559 5566 5572 5577 5581 5588 5595 5599 5604 5609 5615 5620 5623 5627 5632 5637 5642 5646 5649 5653 5656 5659 5663 5666 5670 5673 5675 5678 5681 5683 5686 5686 5686 5690 5692 5694 5697 5700 5703 5707 5710 5712 5712 5714 5717 5719 5721 5723 5724 5727 5727 5727 5732 5736 5736 5739 5747 5753 5755 5756 5758 5762 5766 5768 5770 5771 5771 5772 5773 5774 5776 5778 5781
5466 5467 5470 5477 5485 5495 5505 5512 5517 5521 5525 5530 5536 5540 5547 5555 5562 5568 5573 5577 5584 5591 5595 5600 5605 5611 5615 5618 5622 5628 5634 5638 5641 5644 5649 5652 5655 5659 5662 5664 5666 5669 5673 5675 5678 5680 5680 5681 5685 5688 5691 5695 5698 5700 5703 5706 5707 5708 5712 5715 5716 5718 5719 5720 5720 5721 5725 5729 5729 5731 5739 5744 5748 5751 5752 5755 5760 5763 5764 5766 5766 5766 5767 5768 5769 5771 5773 5775
5461 5462 5467 5474 5483 5493 5501 5506 5511 5518 5524 5530 5535 5538 5544 5551 5557 5561 5566 5572 5580 5587 5591 5595 5601 5606 5611 5615 5619 5625 5630 5633 5636 5640 5644 5646 5651 5654 5657 5659 5661 5664 5668 5670 5672 5673 5674 5677 5681 5684 5688 5692 5693 5693 5695 5699 5701 5704 5707 5709 5710 5712 5713 5713 5714 5717 5723 5723 5721 5728 5736 5737 5741 5746 5748 5751 5755 5756 5758 5760 5761 5761 5762 5762 5764 5766 5768 5769
5456 5461 5469 5476 5483 5490 5497 5504 5511 5517 5523 5529 5535 5539 5542 5546 5551 5556 5562 5568 5575 5581 5586 5590 5596 5603 5608 5613 5617 5621 5624 5627 5632 5637 5639 5643 5647 5649 5651 5654 5656 5659 5662 5664 5666 5668 5670 5673 5677 5681 5684 5687 5688 5688 5690 5694 5697 5700 5702 5704 5705 5706 5707 5708 5710 5714 5717 5715 5717 5727 5730 5730 5736 5742 5744 5746 5747 5747 5750 5753 5755 5756 5756 5757 5759 5761 5763 5764
5455 5460 5467 5475 5484 5491 5498 5503 5507 5511 5517 5523 5529 5534 5538 5544 5550 5555 5560 5565 5570 5576 5581 5586 5592 5599 5604 5608 5612 5616 5619 5624 5629 5632 5635 5639 5642 5644 5646 5649 5651 5653 5656 5658 5660 5663 5666 5669 5673 5676 5680 5683 5684 5684 5686 5689 5692 5695 5697 5699 5701 5701 5702 5705 5708 5711 5712 5711 5717 5724 5724 5725 5732 5737 5739 5742 5741 5741 5746 5749 5750 5751 5751 5753 5755 5757 5758 5758
5453 5458 5465 5473 5481 5490 5495 5498 5500 5503 5510 5516 5522 5527 5534 5541 5548 5554 5558 5563 5567 5573 5578 5583 5589 5595 5599 5603 5607 5611 5617 5623 5627 5629 5632 5635 5638 5641 5643 5644 5646 5649 5651 5653 5655 5658 5663 5666 5669 5673 5675 5678 5680 5682 5684 5685 5687 5689 5691 5694 5696 5696 5698 5701 5704 5708 5708 5708 5714 5718 5716 5721 5730 5734 5735 5737 5738 5738 5741 5743 5745 5746 5747 5749 5751 5751 5750 5751
5450 5456 5464 5471 5478 5484 5488 5492 5498 5501 5505 5509 5516 5523 5529 5536 5544 5551 5556 5562 5567 5573 5578 5583 5586 5590 5595 5599 5603 5608 5614 5619 5622 5626 5631 5635 5638 5640 5641 5643 5645 5647 5649 5651 5653 5657 5661 5663 5666 5670 5671 5674 5679 5680 5680 5681 5681 5680 5684 5689 5693 5694 5696 5699 5701 5703 5704 5704 5708 5711 5711 5719 5729 5731 5730 5732 5733 5733 5734 5736 5739 5740 5741 5743 5743 5743 5742 5743
5449 5454 5461 5467 5472 5478 5483 5489 5494 5497 5502 5509 5517 5522 5526 5533 5539 5545 5550 5556 5563 5570 5577 5582 5585 5588 5592 5596 5601 5608 5612 5615 5619 5623 5626 5630 5633 5635 5637 5640 5642 5644 5647 5650 5652 5656 5659 5660 5663 5665 5666 5671 5675 5674 5675 5676 5672 5673 5682 5690 5692 5693 5694 5695 5696 5698 5699 5700 5701 5704 5710 5719 5724 5723 5723 5726 5727 5726 5728 5731 5732 5733 5735 5735 5735 5734 5734 5735